Regional Weather Roundup
Issued by NWS Jackson, KY

Home | Current Version | Previous Version | Graphics & Text | Print | Product List | Glossary On
Versions: 1 2 3 4 5 6 7 8 9 10 11 12 13 14 15 16 17 18 19 20 21 22 23 24 25 26 27 28 29 30 31 32 33 34 35 36 37 38 39 40 41 42 43 44 45 46 47 48 49 50
084
ASUS43 KJKL 240210
RWRJKL

EAST KENTUCKY HOURLY WEATHER ROUNDUP
NATIONAL WEATHER SERVICE JACKSON KY
1000 PM EDT MON MAY 23 2016

NOTE: "FAIR" INDICATES FEW OR NO CLOUDS BELOW 12,000 FEET WITH
NO SIGNIFICANT WEATHER AND/OR OBSTRUCTIONS TO VISIBILITY.

* THESE REPORTS ARE NOT UNDER NWS QUALITY CONTROL AND MAY NOT
  REPORT WEATHER SUCH AS PRECIPITATION AND FOG.

KYZ079-080-083-085-087-088-110-112-115-119-120-240300
...EASTERN KENTUCKY...

CITY           SKY/WX    TMP DP  RH WIND       PRES   REMARKS
JACKSON        CLEAR     66  47  50 CALM      30.05R
LONDON         CLEAR     61  50  67 CALM      30.04R
SOMERSET*      CLEAR     61  52  72 CALM      30.04R
MONTICELLO*    CLEAR     57  53  86 N6        30.04R
WILLIAMSBURG*  CLEAR     59  54  82 CALM      30.04R
MIDDLESBORO*   CLEAR     61  53  74 NW5       30.05R
HARLAN APT*      N/A     57  50  77 CALM      30.06R
HAZARD APT*    CLEAR     61  54  77 CALM      30.05R
BLACK MTN*       N/A     54  45  71 CALM        N/A
PIKE CO APT*     N/A     65  49  55 CALM      30.06R
BIG SANDY APT* CLEAR     61  52  72 CALM      30.04S
MOREHEAD APT*  CLEAR     64  50  59 CALM      30.06R
ASHLAND*         N/A     59  55  88 CALM      30.01R VSB 1/2
$$

KYZ035-036-041-042-044-050-067-078-099-240300
...CENTRAL KENTUCKY...

CITY           SKY/WX    TMP DP  RH WIND       PRES   REMARKS
MT STERLING*   CLEAR     59  55  88 CALM      30.06R
FLEMING/MASON* CLEAR    N/A N/A N/A CALM      30.05R
DANVILLE*      CLEAR     61  52  72 CALM      30.05R
RICHMOND*      CLEAR     64  50  59 CALM      30.03R
LEXINGTON      CLEAR     61  53  75 CALM      30.04R
FRANKFORT      CLEAR     62  51  67 CALM      30.02R
LOUISVILLE     PTCLDY    72  47  40 SE3       30.00R
LEBANON*         N/A     66  48  52 NE3       30.03R
GLASGOW*       CLEAR     60  50  69 CALM      30.01R
BOWLING GREEN  CLEAR     65  54  67 CALM      30.01R
$$

KYZ091>093-OHZ055-061-077-WVZ005-015-034-035-042-240300
...SOUTHERN OHIO/WEST VIRGINIA...

CITY           SKY/WX    TMP DP  RH WIND       PRES   REMARKS
COVINGTON      CLEAR     65  48  54 S3        30.02S
COLUMBUS       CLEAR     68  49  50 CALM      30.02R
DAYTON         CLEAR     67  46  47 S5        30.04R
WILMINGTON     CLEAR     62  53  72 CALM      30.03R
HUNTINGTON       N/A     62  52  69 CALM      30.03R
CHARLESTON       N/A     62  54  74 CALM      30.04R
PINEVILLE*       N/A     54  50  89 MISG      30.13R
BECKLEY          N/A     58  49  72 NE8       30.10R
BLUEFIELD        N/A     52  49  89 W6        30.10R
LOGAN CO APT*    N/A     63  50  63 CALM      30.06R
$$

VAZ002-007-008-TNZ017-027-036-066-071-240300
...SOUTHWEST VIRGINIA/EAST TENNESSEE...

CITY           SKY/WX    TMP DP  RH WIND       PRES   REMARKS
WISE*            N/A     59  43  55 CALM      30.11R
JONESVILLE*      N/A     59  52  77 CALM      30.07R
ABINGDON*        N/A     57  51  79 CALM      30.08R
BRISTOL        PTCLDY    57  51  80 CALM      30.06R
SEVIERVILLE*   CLEAR     61  52  72 CALM      30.02R
KNOXVILLE      CLEAR     68  49  50 CALM      30.01R
OAK RIDGE      CLEAR     64  50  60 CALM      30.03R
CROSSVILLE     CLEAR     63  45  51 CALM      30.06R
NASHVILLE      PTCLDY    72  47  40 E3        30.00R
$$

...KEY TO REMARKS...
VSB - VISIBILITY IN MILES
WCI - WIND CHILL INDEX
HX  - HEAT INDEX

$$




USA.gov is the U.S. government's official web portal to all federal, state and local government web resources and services.